{"data":{"norad_id":56723,"epoch":"2026-09-19T22:33:44.541504Z","epoch_age_seconds":70387,"freshness":"FRESH","line1":"1 56723U 23068P   26262.94009886  .00000125  00000+0  29852-3 0  9990","line2":"2 56723  87.8986 240.3266 0002226  71.8462 288.2911 13.15549112161825","mean_motion":13.15549112,"eccentricity":0.0002226,"inclination_deg":87.8986,"raan_deg":240.3266,"arg_perigee_deg":71.8462,"mean_anomaly_deg":288.2911,"bstar":0.00029852,"rev_number":16182,"period_min":109.45999559156,"perigee_km":1200.0813217251,"apogee_km":1203.4558957021,"semimajor_km":7579.9056087136,"source":"CELESTRAK","updated_at":"2026-09-20T09:00:44.797182Z"}}